Погода в Вознесенском

Украина / Киевская область     50°24′37″N   32°01′52″E
темп.,
°C
ветер,
м/с
пор.,
м/с
влажн.,
%
обл.,
%
осадки,
мм/ч
давл.,
гПа
погр.,
м
2 декабря, чт
чт223:00−2зюз367875 0.0 1006202
02:00−2ююз377756 0.0 1007228
05:00−2ю51276100 0.0 1006362
08:000ю71676100 0.0 1004500
11:00+3ююз71672100 0.0 1004534
14:00+5ююз6147594 0.0 1003463
17:00+3ю5138679 0.0 1003278
20:00+1ююз4119175 0.0 1004187
3 декабря, пт
пт323:00+1ююз3690100 0.0 100599
02:00+2ю3690100 0.0 1005107
05:00+1ю4890100 0.0 1004117
08:00+1ююв5119196 0.0 1004186
11:00+6ю81882100 0.0 1002662
14:00+8ююз71483100 0.0 1001773
17:00+5юз41090100 0.0 1002240
20:00+1сз61297100 2.5 1007566
4 декабря, сб
сб423:00+1зсз598589 0.2 1010576
02:00−1зсз49895 0.2 1012332
05:00−2зюз3788100 0.0 1013213
08:00−2зюз38815 0.0 1015291
11:00+1з35735 0.0 1015423
14:00+1зсз23725 0.0 1015437
17:00−1ююв11829 0.0 101610
20:00−1ююв228493 0.0 101638
5 декабря, вс
вс523:00−1юв2484100 0.0 101695
02:00−1юв3785100 0.0 1016163
05:00−2юв378630 0.0 1015161
08:00−2юв4108181 0.0 1016245
11:00+1юв51159100 0.0 1015424
14:00+1юв41058100 0.0 1014430
17:00+1юв51064100 0.0 1014473
20:00−1юв51096100 0.6 1013319
6 декабря, пн
пн623:00+1юв4989100 0.3 1013280
02:00+1юв3497100 0.4 1014118
05:00+1юв239898 0.1 101472
08:00+2юв2398100 0.1 101562
11:00+3вюв3599100 0.0 1015115
14:00+4вюв2299100 0.0 101434
17:00+4в3699100 0.0 1013135
20:00+5вюв4999100 0.6 1012208